TimeMDT,TemperatureF,Dew PointF,Humidity,Sea Level PressureIn,VisibilityMPH,Wind Direction,Wind SpeedMPH,Gust SpeedMPH,PrecipitationIn,Events,Conditions,WindDirDegrees,DateUTC
12:53 AM,35.1,28.0,76,30.26,10.0,ENE,5.8,-,N/A,,Clear,60,2012-10-12 06:53:00
2:53 AM,34.0,27.0,75,30.23,10.0,ENE,6.9,-,N/A,,Clear,70,2012-10-12 08:53:00
3:53 AM,32.0,26.1,79,30.22,10.0,ENE,4.6,-,N/A,,Clear,70,2012-10-12 09:53:00
4:16 AM,33.8,26.6,75,30.25,10.0,East,4.6,-,N/A,,Mostly Cloudy,80,2012-10-12 10:16:00
4:53 AM,35.1,26.1,70,30.20,10.0,East,6.9,-,N/A,,Overcast,90,2012-10-12 10:53:00
5:53 AM,36.0,26.1,67,30.22,10.0,SE,9.2,-,N/A,,Overcast,130,2012-10-12 11:53:00
6:53 AM,37.0,26.1,65,30.21,10.0,SE,9.2,-,N/A,,Overcast,140,2012-10-12 12:53:00
7:53 AM,37.9,27.0,65,30.21,10.0,SSE,8.1,-,N/A,,Overcast,150,2012-10-12 13:53:00
8:53 AM,39.9,27.0,60,30.20,10.0,South,8.1,-,N/A,,Overcast,170,2012-10-12 14:53:00
9:27 AM,41.0,28.4,61,30.20,10.0,South,10.4,-,N/A,,Overcast,190,2012-10-12 15:27:00
9:34 AM,42.8,28.4,57,30.20,10.0,South,10.4,-,N/A,,Overcast,180,2012-10-12 15:34:00
10:53 AM,48.9,35.1,59,30.14,10.0,South,12.7,-,N/A,,Overcast,190,2012-10-12 16:53:00
11:53 AM,50.0,35.1,57,30.14,10.0,South,15.0,-,N/A,,Overcast,170,2012-10-12 17:53:00
12:38 PM,55.4,37.4,51,30.13,10.0,SSW,18.4,24.2,N/A,,Scattered Clouds,200,2012-10-12 18:38:00
12:53 PM,55.9,39.0,53,30.09,10.0,SSW,15.0,-,N/A,,Clear,200,2012-10-12 18:53:00
1:53 PM,62.1,39.9,44,30.01,10.0,South,18.4,23.0,N/A,,Clear,190,2012-10-12 19:53:00
2:53 PM,60.1,39.9,47,29.98,10.0,South,17.3,-,N/A,,Clear,180,2012-10-12 20:53:00
4:53 PM,60.1,39.0,46,29.94,10.0,South,17.3,24.2,N/A,,Clear,170,2012-10-12 22:53:00
5:53 PM,57.0,39.9,53,29.92,10.0,SSE,15.0,-,N/A,,Clear,150,2012-10-12 23:53:00
6:53 PM,54.0,39.9,59,29.94,10.0,South,16.1,-,N/A,,Clear,170,2012-10-13 00:53:00
8:53 PM,51.1,39.9,66,29.91,10.0,South,16.1,-,N/A,,Partly Cloudy,180,2012-10-13 02:53:00
9:53 PM,55.9,46.9,72,29.86,10.0,SSW,19.6,27.6,N/A,,Scattered Clouds,200,2012-10-13 03:53:00
10:07 PM,60.8,46.4,59,29.87,10.0,SSW,23.0,39.1,N/A,,Squalls,200,2012-10-13 04:07:00
10:53 PM,52.0,46.0,80,29.80,10.0,South,16.1,-,N/A,,Clear,190,2012-10-13 04:53:00
11:53 PM,52.0,46.9,83,29.82,10.0,SSW,16.1,-,N/A,,Clear,200,2012-10-13 05:53:00